Regional Weather Roundup
Issued by NWS San Angelo, TX

Home | Current Version | Previous Version | Text Only | Print | Product List | Glossary On
Versions: 1 2 3 4 5 6 7 8 9 10 11 12 13 14 15 16 17 18 19 20 21 22 23 24 25 26 27 28 29 30 31 32 33 34 35 36 37 38 39 40 41 42 43 44 45 46 47 48 49 50
000
ASUS44 KSJT 012010
RWRSJT
WEST CENTRAL TEXAS REGIONAL WEATHER ROUNDUP
NATIONAL WEATHER SERVICE SAN ANGELO TX
300 PM CDT WED JUL 01 2015

NOTE: "FAIR" INDICATES FEW OR NO CLOUDS BELOW 12,000 FEET WITH NO
SIGNIFICANT WEATHER AND/OR OBSTRUCTIONS TO VISIBILITY.

TXZ049-054-064>066-071>073-076>078-098-099-113-114-127-128-139-140-
154-155-168>170-012100
...LOCATIONS ACROSS WEST CENTRAL TEXAS...

CITY           SKY/WX    TMP DP  RH WIND       PRES   REMARKS
SAN ANGELO     MOSUNNY   87  66  49 S17G24    30.04S
ABILENE        PTSUNNY   89  66  46 SW16G24   30.01F
DYESS AFB      PTSUNNY   88  68  51 S17       30.00F
JUNCTION       MOSUNNY   88  66  48 S12       30.04F
SWEETWATER     MOSUNNY   87  66  50 S10G20    30.06F
BROWNWOOD      MOSUNNY   91  64  40 SW17      30.02F
COLEMAN        PTCLDY    90  68  48 S21       30.03F
SONORA         MOSUNNY   84  66  54 S12G20    30.09F
OZONA          FAIR      84  63  48 S16G25    30.08F
BRADY          MOSUNNY   88  63  42 N16       30.04F
$$

TEXAS PANHANDLE/OKLAHOMA PANHANDLE

CITY           SKY/WX    TMP DP  RH WIND       PRES   REMARKS
AMARILLO       SUNNY     92  58  31 S10       30.00F
BORGER         SUNNY     97  56  25 VRB6      29.94F
CANADIAN       MOSUNNY   97  61  30 SW12G17   29.89F
DALHART        PTSUNNY   98  51  20 E8        30.01F
DUMAS          PTCLDY    93  53  25 CALM      29.98S
GUYMON         NOT AVBL
HEREFORD       PTCLDY    95  53  24 MISG      30.02F
PAMPA          CLEAR     94  54  25 S10G18    29.97F
PERRYTON       SUNNY    100  52  20 SW6       29.91S
$$

SOUTHERN PANHANDLE/SOUTH PLAINS/ROLLING PLAINS

CITY           SKY/WX    TMP DP  RH WIND       PRES   REMARKS
LUBBOCK        PTSUNNY   91  59  33 SW13      30.02F
SNYDER         SUNNY     85  68  55 S13G20    30.03F
CHILDRESS      MOSUNNY   93  63  36 SW15G22   29.93F
SEMINOLE       CLEAR     90  56  31 S10       30.05S
$$

PERMIAN BASIN

CITY           SKY/WX    TMP DP  RH WIND       PRES   REMARKS
MIDLAND        SUNNY     88  64  44 S15       30.03F
ODESSA         SUNNY     86  64  47 S15       30.04F
WINK           SUNNY     92  62  36 SE13G21   29.98F
$$

FAR WEST/SOUTHWEST MOUNTAINS/TRANS PECOS

CITY           SKY/WX    TMP DP  RH WIND       PRES   REMARKS
ALPINE         PTCLDY    90  53  28 NE8       30.16F
DRYDEN           N/A     90  65  43 VRB7G18   30.00F
EL PASO        MOSUNNY   92  49  22 CALM      30.04F
FORT STOCKTON  SUNNY     89  65  44 SE16G25   30.02F
GUADALUPE PASS SUNNY     84  51  31 SW13      30.17F
MARFA          PTSUNNY  N/A N/A N/A NW3       30.15F
PECOS          CLEAR     93  56  29 E8        29.98F
$$

DALLAS/FORT WORTH METROPLEX

CITY           SKY/WX    TMP DP  RH WIND       PRES   REMARKS
DFW AIRPORT    PTSUNNY   92  68  45 S15       29.97F
FTW MEACHAM    MOSUNNY   92  70  48 S12G22    29.97F
DAL-EXECUTIVE  PTSUNNY   90  71  53 S9        29.99F
GRAND PRAIRIE  SUNNY     91  72  52 S12       30.00F
ADDISON        NOT AVBL
MESQUITE       PTCLDY    91  70  49 S13G21    30.00F
LANCASTER      NOT AVBL
$$

NORTH CENTRAL TEXAS

CITY           SKY/WX    TMP DP  RH WIND       PRES   REMARKS
SHRMAN/DENISON CLEAR     91  72  53 S17G23    29.97F
GAINESVILLE    SUNNY     90  70  51 S20G25    29.98F
BRIDGEPORT     CLEAR     91  70  51 SW14G21   29.99F
DENTON         MOSUNNY   91  71  51 S17G25    29.97F
WAXAHACHIE     MOCLDY    90  71  53 S16       30.01S
GRANBURY       PTCLDY    94  67  41 S14G21    30.00F
$$

WESTERN NORTH TEXAS

CITY           SKY/WX    TMP DP  RH WIND       PRES   REMARKS
WICHITA FALLS  MOSUNNY   93  68  43 SW16G26   29.92F
VERNON         CLEAR     99  56  24 SW16G24   29.93F
BRECKENRIDGE   MOCLDY    92  64  39 S17G24    29.98F
COMANCHE       MOSUNNY   90  68  49 SW13G20   30.02F
$$

CENTRAL AND SOUTH CENTRAL TEXAS

CITY           SKY/WX    TMP DP  RH WIND       PRES   REMARKS
AUSTIN/BERGSTM PTSUNNY   86  72  62 S10       30.02F
WACO           MOSUNNY   90  70  51 S14G21    30.00F
HILLSBORO      MOCLDY    88  69  53 S16       30.01S
TEMPLE         MOSUNNY   90  70  51 S14       30.01F
KILLEEN-GRAY   MOSUNNY   89  69  52 S13       30.01F
FORT HOOD      MOSUNNY   91  71  51 S8        30.01F
GEORGETOWN     PTSUNNY   86  72  62 S16G23    30.01F
LAGO VISTA     FAIR      90  65  44 S13G18    30.05F
SAN MARCOS     PTSUNNY   75  70  83 S18G24    30.07R
NEW BRAUNFELS  CLOUDY    78  70  76 S20G32    30.06R
RANDOLPH AFB   MOSUNNY   75  71  87 SW16      30.06F
SAN ANTONIO    CLOUDY    76  71  85 S18G25    30.07F
STINSON        LGT RAIN  76  71  85 S10       30.04F
PLEASANTON     NOT AVBL
LA GRANGE      PTSUNNY   79  73  82 SW18G29   30.06R
GIDDINGS       MOCLDY    87  71  59 S8        30.08S
$$

EAST TEXAS

CITY           SKY/WX    TMP DP  RH WIND       PRES   REMARKS
PARIS          MOSUNNY   91  68  46 SW14G26   29.98S
CLARKSVILLE    NOT AVBL
TYLER          MOSUNNY   90  71  53 SW14      30.01F
LONGVIEW       MOSUNNY   93  73  52 S12       30.01F
PALESTINE      PTCLDY    92  72  52 SW10      30.03F
NACOGDOCHES    MOSUNNY   90  72  55 SW10      30.02F
$$

TEXAS HILL COUNTRY AND EDWARDS PLATEAU

CITY           SKY/WX    TMP DP  RH WIND       PRES   REMARKS
LLANO          PTCLDY    91  66  43 S8G18     30.05F
HORSESHOE BAY  MOCLDY    89  69  50 S6G20     30.03F
KERRVILLE      PTSUNNY   85  70  60 S15       30.06F
FREDERICKSBRG  MOSUNNY   86  67  53 S10G17    30.05F
ROCKSPRINGS    MOCLDY    81  68  65 S12       30.10F
HONDO          LGT RAIN  75  73  93 S12       30.08R
UVALDE         PTCLDY    79  71  78 S20G25    30.04R
DEL RIO        PTSUNNY   86  70  58 SE16      30.00S
$$

SOUTHEAST TEXAS

CITY           SKY/WX    TMP DP  RH WIND       PRES   REMARKS
COLLEGE STN    MOSUNNY   84  72  67 S5        30.04F
CALDWELL       MOCLDY    82  77  83 S5        30.06F
CROCKETT       PTCLDY    91  77  62 S8G16     30.05F
BRENHAM        MOSUNNY   87  76  69 S7        30.04S
HUNTSVILLE     PTSUNNY   82  73  74 S6        30.04F
CONROE         PTSUNNY   81  72  74 S8        30.05F
HOUSTON BUSH   CLOUDY    81  73  76 SW3       30.02F
HOUSTON HOBBY  CLOUDY    78  73  84 CALM      30.02F
PERLAND        CLOUDY    81  75  82 CALM      30.03F
WHARTON        RAIN      73  72  96 W10       30.08F
$$

THE UPPER TEXAS COAST

CITY           SKY/WX    TMP DP  RH WIND       PRES   REMARKS
ORANGE         CLOUDY    87  80  79 S13       30.06S
PORT ARTHUR    PTSUNNY   89  78  70 S13G21    30.04F
GALVESTON      MOSUNNY   89  80  74 S15       30.04F
ANGLETON       CLOUDY    87  78  74 S20G28    30.04F
BAY CITY       LGT RAIN  76  76  98 SW10G17   30.07R
$$

TEXAS COASTAL BEND, RIO GRANDE PLAINS DEEP SOUTH TEXAS

CITY           SKY/WX    TMP DP  RH WIND       PRES   REMARKS
VICTORIA       CLOUDY    73  72  96 W9        30.08R
BEEVILLE       FAIR      79  71  76 S15G21    30.05S
ROCKPORT       CLOUDY    84  73  69 VRB6      30.03F
PORT ARANSAS   CLOUDY   N/A N/A N/A S13G18    30.03F
PORT LAVACA    CLOUDY    75  72  88 W12       30.07S
CORPUS CHRISTI CLOUDY    81  72  74 S14       30.03F
KINGSVILLE NAS CLOUDY    80  76  87 S13       30.02F
COTULLA        PTSUNNY   80  71  74 S12G18    30.02F
LAREDO         PTSUNNY   81  71  71 SE24      30.03F
BROWNSVILLE    CLOUDY    83  69  62 S14       30.02R
PORT ISABEL    CLOUDY    82  69  64 S14       30.02
HEBBRONVILLE     N/A     80  68  68 S17G24    30.03F
MCALLEN        LGT RAIN  80  70  71 S9        30.03F
WESLACO        CLOUDY    79  69  72 S10       30.01F
FALFURRIAS     CLOUDY    80  71  73 S12       30.02F
EDINBURG       CLOUDY    83  67  58 S10       30.03S
$$



USA.gov is the U.S. government's official web portal to all federal, state and local government web resources and services.